[[{"header":{"parameterUnit":"m.s-1","parameterCategory":2,"la1":30.2992,"la2":30.254,"lo1":-89.0895,"lo2":-89.0443,"dy":0.0025,"dx":0.0025,"nx":19,"ny":19,"refTime":"2026-03-23T21:00:00:Z","depth":"0","parameterNumber":2,"parameterNumberName":"U-component_of_CURRENTS"},"data":[0,0,0,-0.1364,-0.1367,-0.1511,-0.1511,-0.1444,-0.1443,0,0,0,0,0,0,0,0,0,0,0,-0.1289,-0.1289,-0.1363,-0.1367,-0.151,-0.1511,-0.1445,-0.1443,0,0,0,0,0,0,0,0,0,0,0,-0.1288,-0.1289,-0.129,-0.1368,-0.151,-0.1511,-0.1445,-0.1397,0,0,0,0,0,0,0,0,0,0,-0.1288,-0.1284,-0.1289,-0.129,-0.1369,-0.151,-0.1511,-0.1397,-0.14,-0.131,0,-0.1328,0,-0.1392,-0.1434,-0.1433,0,0,0,-0.1359,-0.1283,-0.1299,-0.129,-0.137,-0.151,-0.1444,-0.1401,-0.1403,-0.1312,-0.1328,-0.1329,-0.1391,-0.1433,-0.1432,-0.1323,-0.1322,0,0,-0.1351,-0.1332,-0.1298,-0.1301,-0.1395,-0.1439,-0.1448,-0.1405,-0.1408,-0.1328,-0.1329,-0.139,-0.1432,-0.1431,-0.1323,-0.1323,0,0,0,-0.1334,-0.1326,-0.135,-0.13,-0.1352,-0.1443,-0.1454,-0.1411,-0.1412,-0.1329,-0.1389,-0.1431,-0.1429,-0.1323,-0.1323,-0.1306,0,0,0,-0.1329,-0.1317,-0.1346,-0.1338,-0.1354,-0.1426,-0.146,-0.1415,-0.1414,-0.1389,-0.1431,-0.1428,-0.1323,-0.1323,-0.1307,-0.13,0,0,0,-0.1284,-0.1314,-0.1322,-0.1336,-0.1404,-0.1429,-0.1432,-0.1418,-0.1449,-0.1433,-0.1427,-0.1323,-0.1323,-0.1308,-0.1301,-0.129,0,0,0,-0.127,-0.1295,-0.1322,-0.1355,-0.1402,-0.1427,-0.1433,-0.1456,-0.1444,-0.143,-0.1323,-0.1323,-0.1308,-0.1302,-0.1291,-0.1379,-0.1383,0,0,-0.1292,-0.1297,-0.1311,-0.1339,-0.1356,-0.1407,-0.1408,-0.1404,-0.1404,-0.1318,-0.1318,-0.1307,-0.1301,-0.129,-0.136,-0.1364,0,0,0,-0.1312,-0.1313,-0.1321,-0.1343,-0.1363,-0.1373,-0.139,-0.1385,-0.1364,-0.1401,-0.1304,-0.1302,-0.1295,-0.135,-0.1353,-0.1428,-0.1321,-0.1321,-0.1321,-0.131,-0.1313,-0.132,-0.1316,-0.1318,-0.1338,-0.1336,-0.1327,-0.1316,-0.1316,-0.1286,-0.1265,-0.1323,-0.1327,-0.1402,-0.1284,-0.1284,-0.1284,-0.1284,-0.1316,-0.1306,-0.1301,-0.1308,-0.1291,-0.1277,-0.1263,-0.1276,-0.1248,-0.1263,-0.1257,-0.1328,-0.1329,-0.1408,-0.1283,-0.1283,-0.1284,-0.1284,-0.1284,-0.1292,-0.1284,-0.1298,-0.1287,-0.1265,-0.1254,-0.1246,-0.1239,-0.1236,-0.1228,-0.1298,-0.13,-0.1371,-0.1232,-0.1232,-0.1232,-0.1231,-0.1231,-0.1231,-0.1256,-0.1267,-0.1253,-0.1255,-0.124,-0.1233,-0.1239,-0.125,-0.1279,-0.1287,-0.1288,-0.1381,-0.1249,-0.1253,-0.123,-0.123,-0.123,-0.1231,-0.1231,-0.1185,-0.1207,-0.1187,-0.118,-0.1175,-0.1192,-0.1233,-0.1318,-0.1326,-0.1355,-0.1453,-0.1319,-0.1333,-0.1333,-0.1339,-0.134,-0.134,-0.134,-0.134,-0.1124,-0.1138,-0.1104,-0.1091,-0.1108,-0.1157,-0.1266,-0.1384,-0.1493,-0.1545,-0.1537,-0.1584,-0.1576,-0.1606,-0.1599,-0.1611,-0.1681,-0.1681,-0.1681,-0.1048,-0.1061,-0.1012,-0.1035,-0.1063,-0.1143,-0.1271,-0.1493,-0.1665,-0.1698,-0.162,-0.1605,-0.1674,-0.1656,-0.1704,-0.1688,-0.1707,0,0]},{"header":{"parameterUnit":"m.s-1","parameterCategory":2,"la1":30.2992,"la2":30.254,"lo1":-89.0895,"lo2":-89.0443,"dy":0.0025,"dx":0.0025,"nx":19,"ny":19,"refTime":"2026-03-23T21:00:00:Z","depth":"0","parameterNumber":3,"parameterNumberName":"V-component_of_CURRENTS"},"data":[0,0,0,-0.0912,-0.0911,-0.0886,-0.0886,-0.0837,-0.0836,0,0,0,0,0,0,0,0,0,0,0,-0.0918,-0.0918,-0.0912,-0.0911,-0.0886,-0.0886,-0.0837,-0.0836,0,0,0,0,0,0,0,0,0,0,0,-0.0919,-0.0918,-0.0918,-0.0911,-0.0886,-0.0886,-0.0837,-0.0861,0,0,0,0,0,0,0,0,0,0,-0.0887,-0.0902,-0.0918,-0.0918,-0.0911,-0.0886,-0.0886,-0.0862,-0.0859,-0.0842,0,-0.0834,0,-0.0833,-0.0832,-0.0832,0,0,0,-0.0914,-0.0905,-0.089,-0.0918,-0.091,-0.0886,-0.0898,-0.0861,-0.0858,-0.0838,-0.0834,-0.0832,-0.0832,-0.0832,-0.0832,-0.0764,-0.0764,0,0,-0.0915,-0.0921,-0.0892,-0.0888,-0.0898,-0.0899,-0.0897,-0.0859,-0.0857,-0.0833,-0.0831,-0.0831,-0.0832,-0.0831,-0.0765,-0.0764,0,0,0,-0.0917,-0.0922,-0.091,-0.089,-0.0886,-0.0898,-0.0896,-0.0859,-0.0852,-0.083,-0.0831,-0.0831,-0.0831,-0.0765,-0.0765,-0.0731,0,0,0,-0.0918,-0.0923,-0.091,-0.0915,-0.0887,-0.0876,-0.0897,-0.0855,-0.0851,-0.0831,-0.0831,-0.083,-0.0765,-0.0765,-0.0732,-0.0738,0,0,0,-0.0921,-0.0924,-0.0918,-0.0915,-0.0903,-0.0877,-0.0869,-0.0854,-0.085,-0.0832,-0.083,-0.0766,-0.0765,-0.0734,-0.074,-0.0684,0,0,0,-0.0933,-0.093,-0.0918,-0.0913,-0.0903,-0.0855,-0.0869,-0.0832,-0.0811,-0.0831,-0.0765,-0.0765,-0.0734,-0.0741,-0.0686,-0.0682,-0.0674,0,0,-0.0938,-0.093,-0.0928,-0.0917,-0.0892,-0.086,-0.0818,-0.0797,-0.0798,-0.0778,-0.0776,-0.0732,-0.074,-0.0685,-0.0642,-0.0634,0,0,0,-0.0935,-0.0938,-0.0923,-0.0912,-0.0866,-0.0827,-0.0789,-0.0765,-0.0741,-0.0783,-0.0727,-0.0734,-0.0699,-0.0701,-0.0695,-0.0587,-0.0761,-0.0761,-0.0761,-0.0971,-0.0954,-0.0945,-0.0911,-0.0868,-0.0796,-0.075,-0.0716,-0.0706,-0.0687,-0.0701,-0.0635,-0.0636,-0.0632,-0.052,-0.0686,-0.0686,-0.0685,-0.0685,-0.1002,-0.0989,-0.0968,-0.0956,-0.0891,-0.0839,-0.0734,-0.0704,-0.0629,-0.0657,-0.0624,-0.0661,-0.0623,-0.0507,-0.0683,-0.0683,-0.0684,-0.0684,-0.0684,-0.1018,-0.1002,-0.1017,-0.099,-0.0941,-0.0857,-0.0779,-0.0704,-0.0629,-0.0585,-0.0569,-0.057,-0.047,-0.0558,-0.0558,-0.0558,-0.0558,-0.0558,-0.0557,-0.1013,-0.1021,-0.1022,-0.1001,-0.097,-0.0912,-0.0792,-0.0716,-0.06,-0.0544,-0.0543,-0.0433,-0.0596,-0.0604,-0.0554,-0.0554,-0.0555,-0.0555,-0.0556,-0.0975,-0.0998,-0.0997,-0.099,-0.0949,-0.0931,-0.0833,-0.0695,-0.0584,-0.0522,-0.0345,-0.0503,-0.0511,-0.0517,-0.0523,-0.0454,-0.0454,-0.0454,-0.0454,-0.0941,-0.0956,-0.0966,-0.0961,-0.0943,-0.0932,-0.0888,-0.0758,-0.0472,-0.0325,-0.024,-0.0253,-0.0262,-0.0257,-0.0268,-0.027,-0.0138,-0.0137,-0.0137,-0.0899,-0.0921,-0.0918,-0.0952,-0.0945,-0.0957,-0.0972,-0.0867,-0.0405,-0.0111,-0.0083,-0.0097,-0.0106,-0.0129,-0.0119,-0.0143,-0.0146,0,0]}],[{"header":{"parameterUnit":"m.s-1","parameterCategory":2,"la1":30.2992,"la2":30.254,"lo1":-89.0895,"lo2":-89.0443,"dy":0.0025,"dx":0.0025,"nx":19,"ny":19,"refTime":"2026-03-23T21:00:00:Z","depth":"2","parameterNumber":2,"parameterNumberName":"U-component_of_CURRENTS"},"data":[0,0,0,-0.1244,-0.1247,-0.1376,-0.1376,-0.1306,-0.1305,0,0,0,0,0,0,0,0,0,0,0,-0.118,-0.1181,-0.1243,-0.1247,-0.1376,-0.1376,-0.1306,-0.1305,0,0,0,0,0,0,0,0,0,0,0,-0.118,-0.1181,-0.1182,-0.1248,-0.1376,-0.1376,-0.1306,-0.1264,0,0,0,0,0,0,0,0,0,0,-0.1167,-0.1165,-0.1181,-0.1182,-0.1248,-0.1375,-0.1376,-0.1265,-0.1267,-0.1185,0,-0.121,0,-0.1264,-0.1296,-0.1296,0,0,0,-0.1233,-0.1164,-0.1186,-0.1182,-0.125,-0.1375,-0.1314,-0.1268,-0.127,-0.1186,-0.121,-0.1209,-0.1263,-0.1295,-0.1295,-0.1169,-0.1169,0,0,-0.1226,-0.121,-0.1185,-0.1188,-0.1284,-0.131,-0.1318,-0.1271,-0.1275,-0.121,-0.1209,-0.1262,-0.1294,-0.1293,-0.117,-0.1169,0,0,0,-0.1215,-0.1205,-0.1233,-0.1188,-0.1235,-0.1314,-0.1323,-0.1277,-0.1284,-0.1209,-0.1261,-0.1294,-0.1292,-0.117,-0.117,-0.1204,0,0,0,-0.121,-0.12,-0.1229,-0.1222,-0.1238,-0.1296,-0.133,-0.1287,-0.1285,-0.1261,-0.1294,-0.1291,-0.1171,-0.117,-0.1204,-0.1196,0,0,0,-0.1174,-0.1197,-0.121,-0.122,-0.1284,-0.1299,-0.1305,-0.1289,-0.1315,-0.1295,-0.129,-0.1171,-0.117,-0.1204,-0.1197,-0.1188,0,0,0,-0.1154,-0.1187,-0.1209,-0.1248,-0.1283,-0.1308,-0.1307,-0.1319,-0.1304,-0.1293,-0.1171,-0.117,-0.1204,-0.1197,-0.1188,-0.1256,-0.1261,0,0,-0.1183,-0.119,-0.1209,-0.1232,-0.1246,-0.1289,-0.1295,-0.128,-0.1256,-0.1167,-0.1167,-0.1204,-0.1197,-0.1188,-0.1203,-0.1209,0,0,0,-0.1209,-0.1212,-0.1222,-0.1237,-0.1257,-0.1275,-0.1279,-0.1273,-0.1239,-0.1249,-0.1175,-0.1168,-0.1163,-0.1203,-0.1208,-0.1165,-0.1165,-0.1166,-0.1166,-0.1211,-0.1208,-0.1219,-0.1218,-0.1225,-0.1243,-0.1249,-0.1228,-0.121,-0.1203,-0.1177,-0.1162,-0.1205,-0.1209,-0.1164,-0.1164,-0.1165,-0.1165,-0.1165,-0.1218,-0.1211,-0.1201,-0.1214,-0.1207,-0.1202,-0.12,-0.1208,-0.1176,-0.1176,-0.1171,-0.1212,-0.1216,-0.1167,-0.1166,-0.1166,-0.1166,-0.1166,-0.1166,-0.12,-0.1192,-0.1209,-0.1197,-0.1188,-0.1196,-0.1191,-0.1186,-0.1182,-0.1176,-0.1209,-0.1209,-0.1185,-0.118,-0.1179,-0.1179,-0.1179,-0.1179,-0.1179,-0.1169,-0.1179,-0.1171,-0.1177,-0.1172,-0.1175,-0.1187,-0.1198,-0.1221,-0.1223,-0.1224,-0.1166,-0.1165,-0.1184,-0.1178,-0.1178,-0.1179,-0.1179,-0.1179,-0.1103,-0.1128,-0.1111,-0.1112,-0.1117,-0.1129,-0.1173,-0.1247,-0.1258,-0.1281,-0.125,-0.1248,-0.1237,-0.1234,-0.1252,-0.1264,-0.1264,-0.1264,-0.1264,-0.1051,-0.1064,-0.1037,-0.1029,-0.1051,-0.1094,-0.1172,-0.1251,-0.1292,-0.1276,-0.1275,-0.1297,-0.1295,-0.1286,-0.1282,-0.1301,-0.1325,-0.1325,-0.1325,-0.098,-0.0993,-0.0953,-0.0977,-0.101,-0.1071,-0.1148,-0.1244,-0.1289,-0.1321,-0.1223,-0.128,-0.1314,-0.131,-0.1295,-0.1289,-0.1319,0,0]},{"header":{"parameterUnit":"m.s-1","parameterCategory":2,"la1":30.2992,"la2":30.254,"lo1":-89.0895,"lo2":-89.0443,"dy":0.0025,"dx":0.0025,"nx":19,"ny":19,"refTime":"2026-03-23T21:00:00:Z","depth":"2","parameterNumber":3,"parameterNumberName":"V-component_of_CURRENTS"},"data":[0,0,0,-0.061,-0.0611,-0.0619,-0.0619,-0.0572,-0.0572,0,0,0,0,0,0,0,0,0,0,0,-0.0608,-0.0609,-0.061,-0.0611,-0.0619,-0.0619,-0.0572,-0.0572,0,0,0,0,0,0,0,0,0,0,0,-0.0608,-0.0609,-0.0609,-0.0611,-0.0619,-0.0619,-0.0573,-0.0576,0,0,0,0,0,0,0,0,0,0,-0.0574,-0.057,-0.0609,-0.0609,-0.0611,-0.0619,-0.0619,-0.0577,-0.0576,-0.0558,0,-0.0576,0,-0.0579,-0.0569,-0.0569,0,0,0,-0.0593,-0.057,-0.0593,-0.061,-0.0611,-0.0619,-0.061,-0.0577,-0.0576,-0.0557,-0.0575,-0.0574,-0.0578,-0.0569,-0.0569,-0.0477,-0.0476,0,0,-0.0593,-0.0584,-0.0594,-0.0593,-0.0634,-0.061,-0.0611,-0.0577,-0.057,-0.0575,-0.0573,-0.0578,-0.0569,-0.0568,-0.0478,-0.0477,0,0,0,-0.0603,-0.0583,-0.0607,-0.0595,-0.0605,-0.0611,-0.0611,-0.0571,-0.0586,-0.0573,-0.0577,-0.0568,-0.0568,-0.0478,-0.0477,-0.0525,0,0,0,-0.0602,-0.0591,-0.0607,-0.0598,-0.0606,-0.0592,-0.0607,-0.0589,-0.0585,-0.0577,-0.0568,-0.0568,-0.0479,-0.0478,-0.0525,-0.053,0,0,0,-0.0604,-0.059,-0.0603,-0.0598,-0.0612,-0.0593,-0.0604,-0.0588,-0.0588,-0.0569,-0.0567,-0.048,-0.0478,-0.0525,-0.053,-0.0478,0,0,0,-0.0578,-0.062,-0.0603,-0.0632,-0.0613,-0.0598,-0.0604,-0.0569,-0.0548,-0.0568,-0.0479,-0.0478,-0.0526,-0.053,-0.0479,-0.0467,-0.0461,0,0,-0.0624,-0.0625,-0.0641,-0.0627,-0.0623,-0.0595,-0.0575,-0.0548,-0.0516,-0.0485,-0.0484,-0.0525,-0.053,-0.0478,-0.0371,-0.0368,0,0,0,-0.0649,-0.0663,-0.0658,-0.0647,-0.0621,-0.0606,-0.0563,-0.0539,-0.05,-0.0502,-0.0477,-0.0478,-0.0445,-0.0438,-0.0435,-0.047,-0.047,-0.047,-0.047,-0.0715,-0.0687,-0.0695,-0.0671,-0.0645,-0.0584,-0.0557,-0.0508,-0.0491,-0.0466,-0.0483,-0.0427,-0.042,-0.0418,-0.0451,-0.0451,-0.0451,-0.0451,-0.0451,-0.0771,-0.0765,-0.0719,-0.073,-0.0685,-0.0654,-0.0575,-0.0546,-0.0466,-0.0475,-0.044,-0.0446,-0.0417,-0.0454,-0.0453,-0.0453,-0.0453,-0.0452,-0.0452,-0.0798,-0.0786,-0.0804,-0.0775,-0.075,-0.0703,-0.0633,-0.0567,-0.0496,-0.0456,-0.0398,-0.0397,-0.0456,-0.043,-0.043,-0.043,-0.043,-0.043,-0.043,-0.0808,-0.0813,-0.0826,-0.0813,-0.0799,-0.0761,-0.0656,-0.0583,-0.0471,-0.0415,-0.0414,-0.0419,-0.0419,-0.045,-0.0426,-0.0427,-0.0427,-0.0428,-0.0428,-0.0782,-0.0817,-0.082,-0.0827,-0.0801,-0.0784,-0.0695,-0.0558,-0.0454,-0.0391,-0.0371,-0.0373,-0.0343,-0.0344,-0.0371,-0.0327,-0.0327,-0.0327,-0.0327,-0.077,-0.0783,-0.0809,-0.0812,-0.0801,-0.0788,-0.0734,-0.0601,-0.0432,-0.0347,-0.0347,-0.0378,-0.0381,-0.0354,-0.0356,-0.0383,-0.0343,-0.0343,-0.0343,-0.073,-0.0758,-0.0771,-0.0812,-0.0809,-0.081,-0.0804,-0.0674,-0.0422,-0.0346,-0.0377,-0.0323,-0.0369,-0.0374,-0.0332,-0.0334,-0.0377,0,0]}],[{"header":{"parameterUnit":"m.s-1","parameterCategory":2,"la1":30.2992,"la2":30.254,"lo1":-89.0895,"lo2":-89.0443,"dy":0.0025,"dx":0.0025,"nx":19,"ny":19,"refTime":"2026-03-23T21:00:00:Z","depth":"4","parameterNumber":2,"parameterNumberName":"U-component_of_CURRENTS"},"data":[0,0,0,-0.0493,-0.0492,-0.0449,-0.0449,-0.045,-0.045,0,0,0,0,0,0,0,0,0,0,0,-0.0489,-0.0488,-0.0493,-0.0492,-0.0449,-0.0449,-0.045,-0.045,0,0,0,0,0,0,0,0,0,0,0,-0.0489,-0.0488,-0.0487,-0.0492,-0.0449,-0.0449,-0.045,-0.0468,0,0,0,0,0,0,0,0,0,0,-0.0503,-0.0501,-0.0488,-0.0487,-0.0492,-0.0449,-0.0449,-0.0468,-0.0467,-0.0487,0,-0.0462,0,-0.0467,-0.0452,-0.0452,0,0,0,-0.049,-0.0502,-0.0484,-0.0487,-0.0491,-0.0449,-0.0468,-0.0467,-0.0466,-0.0485,-0.0462,-0.0463,-0.0467,-0.0452,-0.0452,-0.0591,-0.0592,0,0,-0.0493,-0.0493,-0.0485,-0.0482,-0.0459,-0.0469,-0.0467,-0.0466,-0.046,-0.0462,-0.0463,-0.0467,-0.0452,-0.0452,-0.0589,-0.0591,0,0,0,-0.0501,-0.0494,-0.0476,-0.0482,-0.0476,-0.0468,-0.0465,-0.046,-0.0451,-0.0463,-0.0467,-0.0452,-0.0453,-0.0588,-0.059,-0.0621,0,0,0,-0.0502,-0.05,-0.0476,-0.0478,-0.0475,-0.0463,-0.0459,-0.045,-0.0451,-0.0467,-0.0452,-0.0453,-0.0586,-0.0589,-0.0617,-0.0625,0,0,0,-0.0495,-0.05,-0.0486,-0.0478,-0.0461,-0.0463,-0.0454,-0.045,-0.0455,-0.0452,-0.0453,-0.0585,-0.0588,-0.0614,-0.062,-0.0671,0,0,0,-0.051,-0.0491,-0.0485,-0.0487,-0.0461,-0.0527,-0.0454,-0.0472,-0.0475,-0.0453,-0.0586,-0.059,-0.0613,-0.0617,-0.0667,-0.0545,0,0,0,-0.0501,-0.049,-0.0499,-0.0494,-0.0558,-0.0534,-0.063,-0.0571,-0.0537,-0.0586,-0.0589,-0.0619,-0.062,-0.067,-0.0735,0,0,0,0,-0.0509,-0.051,-0.0535,-0.0561,-0.0609,-0.0667,-0.0652,-0.0653,-0.0646,-0.0553,-0.0675,-0.0676,-0.0705,-0.0628,-0.0605,-0.0605,-0.0604,-0.0604,-0.0604,-0.0492,-0.053,-0.0578,-0.0637,-0.0691,-0.0765,-0.0801,-0.0806,-0.0757,-0.0762,-0.0743,-0.086,-0.0785,-0.0795,-0.0795,-0.0795,-0.0795,-0.0796,-0.0796,-0.0511,-0.0538,-0.0612,-0.0661,-0.0749,-0.0816,-0.0907,-0.0879,-0.0925,-0.0856,-0.0883,-0.0719,-0.08,-0.0799,-0.0799,-0.0798,-0.0798,-0.0798,-0.0797,-0.0504,-0.0522,-0.0559,-0.0642,-0.0725,-0.0807,-0.0866,-0.0926,-0.093,-0.0966,-0.0872,-0.0898,-0.0847,-0.096,-0.096,-0.0961,-0.0961,-0.0961,-0.0961,-0.0466,-0.0518,-0.0544,-0.0624,-0.0655,-0.0699,-0.0831,-0.0845,-0.0903,-0.0912,-0.0958,-0.0916,-0.0911,-0.0859,-0.0966,-0.0965,-0.0964,-0.0964,-0.0964,-0.0423,-0.0441,-0.0489,-0.0521,-0.0593,-0.0621,-0.0753,-0.081,-0.0859,-0.0856,-0.0903,-0.0904,-0.0881,-0.0877,-0.0822,-0.0922,-0.092,-0.0919,0,-0.0366,-0.0389,-0.0451,-0.0504,-0.0517,-0.0592,-0.0616,-0.0655,-0.0752,-0.0776,-0.0797,-0.0845,-0.0847,-0.0812,-0.0807,-0.0739,0,0,0,-0.0316,-0.0356,-0.0379,-0.046,-0.049,-0.0533,-0.0607,-0.0633,-0.0784,-0.0746,-0.0889,-0.0897,-0.0795,-0.0979,-0.0948,-0.0942,-0.0857,0,0]},{"header":{"parameterUnit":"m.s-1","parameterCategory":2,"la1":30.2992,"la2":30.254,"lo1":-89.0895,"lo2":-89.0443,"dy":0.0025,"dx":0.0025,"nx":19,"ny":19,"refTime":"2026-03-23T21:00:00:Z","depth":"4","parameterNumber":3,"parameterNumberName":"V-component_of_CURRENTS"},"data":[0,0,0,0.0465,0.0468,0.0576,0.0576,0.0578,0.0578,0,0,0,0,0,0,0,0,0,0,0,0.0428,0.0429,0.0465,0.0468,0.0576,0.0576,0.0578,0.0578,0,0,0,0,0,0,0,0,0,0,0,0.0428,0.0429,0.0431,0.0468,0.0576,0.0576,0.0578,0.0527,0,0,0,0,0,0,0,0,0,0,0.0437,0.0455,0.0429,0.0431,0.0469,0.0575,0.0576,0.0526,0.053,0.0496,0,0.0532,0,0.056,0.0577,0.0577,0,0,0,0.0452,0.0452,0.0458,0.0431,0.047,0.0575,0.0522,0.0529,0.0534,0.0501,0.0533,0.0534,0.056,0.0577,0.0576,0.0557,0.0557,0,0,0.0446,0.0462,0.0455,0.0462,0.0522,0.0519,0.0526,0.0533,0.0558,0.0533,0.0535,0.056,0.0576,0.0576,0.0557,0.0557,0,0,0,0.044,0.0458,0.0467,0.046,0.0494,0.0523,0.0531,0.0558,0.0556,0.0535,0.056,0.0576,0.0576,0.0557,0.0557,0.0517,0,0,0,0.0435,0.0455,0.0465,0.0477,0.0495,0.0554,0.0556,0.0555,0.0558,0.056,0.0576,0.0576,0.0557,0.0557,0.0518,0.0479,0,0,0,0.0419,0.0454,0.0469,0.0478,0.0529,0.0554,0.0554,0.0557,0.0572,0.0577,0.0576,0.0557,0.0557,0.0519,0.0481,0.0446,0,0,0,0.0426,0.0443,0.047,0.0475,0.0528,0.0525,0.0554,0.0564,0.0565,0.0576,0.0557,0.0557,0.0519,0.0483,0.0448,0.0335,0,0,0,0.0431,0.0445,0.0431,0.0457,0.0434,0.0507,0.0507,0.0531,0.0551,0.0542,0.0543,0.0517,0.0482,0.0447,0.0329,0,0,0,0,0.0418,0.0427,0.0416,0.0423,0.0422,0.0452,0.0502,0.0526,0.0542,0.0559,0.0526,0.0505,0.0484,0.0424,0.0556,0.0556,0.0556,0.0556,0.0556,0.0477,0.043,0.0406,0.0374,0.0377,0.042,0.0441,0.049,0.0507,0.0519,0.0479,0.0433,0.037,0.05,0.05,0.05,0.05,0.0499,0.0499,0.0462,0.0413,0.0394,0.0352,0.0351,0.0356,0.0393,0.0426,0.0431,0.0465,0.0447,0.0396,0.0496,0.0496,0.0497,0.0497,0.0498,0.0498,0.0498,0.0457,0.0416,0.0411,0.0351,0.0314,0.0309,0.0257,0.0315,0.0369,0.0357,0.0278,0.0395,0.0389,0.0337,0.0337,0.0336,0.0336,0.0336,0.0336,0.0428,0.0413,0.0385,0.033,0.0275,0.0199,0.0178,0.0158,0.0213,0.0201,0.0322,0.0377,0.0383,0.0379,0.0331,0.0331,0.0332,0.0333,0.0333,0.034,0.0375,0.0327,0.029,0.0161,0.0085,0.0064,-0.0002,-0.0018,-0.0028,0.0129,0.0141,0.0138,0.0148,0.0137,0.0014,0.0013,0.0011,0,0.0289,0.0299,0.0255,0.019,0.0067,0.001,-0.0114,-0.0145,-0.0071,-0.0053,0.0024,0.0207,0.0213,0.0217,0.0224,0.0214,0,0,0,0.0216,0.0229,0.0178,0.0151,0.0016,-0.0111,-0.0157,-0.0177,-0.0074,-0.0167,-0.0032,-0.002,0.0132,0.0316,0.0338,0.0344,0.034,0,0]}]]